Location: Jaite
(41.2884°N, 81.5737°W)
Time: 12:00:22
(UTC+00:00)

BlueWalker 3 - Pass Details

Date: 20 October 2024
Orbit: 470 x 482 km, 53.2° (Epoch: 05 November)

Event Time Altitude Azimuth Distance (km) Brightness Sun altitude
Exits shadow 10:47:35 11° 313° (NW) 1,562 4.0 -11.3°
Maximum altitude 10:51:04 66° 36° (NE) 515 2.1 -10.7°
Drops below altitude 10° 10:54:43 10° 120° (ESE) 1,628 5.7 -10.0°
Sets 10:56:53 0° 123° (ESE) 2,504 6.7 -9.6°
